Location: North Evanston
(42.0634°N, 87.6976°W)
Time: 06:18:56
(UTC+00:00)

Explorer 11/Cluster Stage 4 - Pass Details

Date: 17 May 2026
Orbit: 463 x 1173 km, 28.8° (Epoch: 7 June)

Event Time Altitude Azimuth Distance (km) Brightness Sun altitude
Rises 02:00:06 0° 211° (SSW) 4,024 10.2 -9.3°
Reaches altitude 10° 02:04:31 10° 190° (S) 3,011 9.3 -10.0°
Maximum altitude 02:08:14 14° 160° (SSE) 2,615 8.7 -10.5°
Enters shadow 02:10:21 13° 141° (SE) 2,678 8.7 -10.8°
